| time (UTC) | temp F | wind direction | speed knots | gust knots | rain 1hr in | rain 24hr in | rain mn in | humidity % | barometer mb |
| 20260831073037 | 80 | 93 | 1.7 | 0.0 | 0.00 | 0.00 | 0.00 | 77 | 1012.9 |
| 20260831071534 | 81 | 227 | 0.9 | 0.0 | 0.00 | 0.00 | 0.00 | 76 | 1012.9 |
| 20260831070033 | 81 | 180 | 0.9 | 0.0 | 0.00 | 0.00 | 0.00 | 74 | 1012.9 |
| 20260831064531 | 82 | 172 | 0.9 | 0.0 | 0.00 | 0.00 | 0.00 | 74 | 1013.0 |
| 20260831063029 | 82 | 235 | 0.9 | 0.0 | 0.00 | 0.00 | 0.00 | 73 | 1013.1 |
| 20260831061528 | 83 | 177 | 0.9 | 0.0 | 0.00 | 0.00 | 0.00 | 73 | 1013.0 |
| 20260831060026 | 83 | 224 | 0.9 | 0.0 | 0.00 | 0.00 | 0.00 | 72 | 1012.9 |
| 20260831054522 | 83 | 221 | 1.7 | 0.0 | 0.00 | 0.00 | 0.00 | 71 | 1012.8 |
| 20260831053020 | 84 | 122 | 1.7 | 0.0 | 0.00 | 0.00 | 0.00 | 69 | 1012.8 |
| 20260831051523 | 84 | 160 | 0.9 | 0.0 | 0.00 | 0.00 | 0.00 | 67 | 1012.6 |
| 20260831050015 | 84 | 133 | 0.9 | 0.0 | 0.00 | 0.00 | 0.00 | 66 | 1012.5 |
| 20260831044515 | 85 | 147 | 1.7 | 0.0 | 0.00 | 0.00 | 0.00 | 65 | 1012.4 |
| 20260831043014 | 86 | 149 | 1.7 | 0.0 | 0.00 | 0.00 | 0.00 | 64 | 1012.4 |
| 20260831041532 | 86 | 124 | 1.7 | 0.0 | 0.00 | 0.00 | 0.00 | 62 | 1012.4 |
| 20260831040013 | 86 | 136 | 1.7 | 0.0 | 0.00 | 0.00 | 0.00 | 62 | 1012.4 |
| 20260831034512 | 86 | 131 | 1.7 | 0.0 | 0.00 | 0.00 | 0.00 | 62 | 1012.2 |
| 20260831033012 | 87 | 181 | 2.6 | 0.0 | 0.00 | 0.00 | 0.00 | 62 | 1012.0 |
| 20260831031512 | 87 | 140 | 1.7 | 0.0 | 0.00 | 0.00 | 0.00 | 61 | 1011.9 |
| 20260831030012 | 88 | 139 | 2.6 | 0.0 | 0.00 | 0.00 | 0.00 | 60 | 1011.6 |
| 20260831024511 | 88 | 110 | 1.7 | 0.0 | 0.00 | 0.00 | 0.00 | 61 | 1011.4 |
| 20260831023010 | 89 | 153 | 2.6 | 0.0 | 0.00 | 0.00 | 0.00 | 59 | 1011.3 |
| 20260831021511 | 90 | 205 | 2.6 | 0.0 | 0.00 | 0.00 | 0.00 | 55 | 1011.0 |
| 20260831020012 | 90 | 151 | 0.9 | 0.0 | 0.00 | 0.00 | 0.00 | 49 | 1010.8 |
| 20260831014517 | 90 | 45 | 0.0 | 0.0 | 0.00 | 0.00 | 0.00 | 48 | 1010.4 |
| 20260831013009 | 91 | 142 | 0.9 | 0.0 | 0.00 | 0.00 | 0.00 | 47 | 1010.2 |
| 20260831011511 | 91 | 141 | 0.0 | 0.0 | 0.00 | 0.00 | 0.00 | 47 | 1010.1 |
| 20260831010007 | 92 | 109 | 0.0 | 0.0 | 0.00 | 0.00 | 0.00 | 46 | 1010.2 |
| 20260831004506 | 93 | 147 | 0.9 | 0.0 | 0.00 | 0.00 | 0.00 | 45 | 1010.1 |
| 20260831003006 | 93 | 124 | 0.9 | 0.0 | 0.00 | 0.00 | 0.00 | 45 | 1010.0 |
| 20260831001506 | 94 | 142 | 0.9 | 0.0 | 0.00 | 0.00 | 0.00 | 44 | 1009.9 |
| 20260831000006 | 95 | 131 | 1.7 | 0.0 | 0.00 | 0.00 | 0.00 | 42 | 1010.0 |
| 20260830234509 | 96 | 76 | 1.7 | 0.0 | 0.00 | 0.00 | 0.00 | 43 | 1010.0 |
| 20260830233011 | 97 | 141 | 1.7 | 0.0 | 0.00 | 0.00 | 0.00 | 42 | 1010.0 |
| 20260830231504 | 97 | 62 | 1.7 | 0.0 | 0.00 | 0.00 | 0.00 | 41 | 1010.0 |
| 20260830230004 | 97 | 190 | 1.7 | 0.0 | 0.00 | 0.00 | 0.00 | 40 | 1010.0 |
| 20260830224502 | 98 | 92 | 1.7 | 0.0 | 0.00 | 0.00 | 0.00 | 38 | 1010.1 |
| 20260830223133 | 98 | 155 | 2.6 | 0.0 | 0.00 | 0.00 | 0.00 | 40 | 1010.1 |
| 20260830221604 | 98 | 232 | 1.7 | 0.0 | 0.00 | 0.00 | 0.00 | 41 | 1010.1 |
| 20260830214557 | 98 | 95 | 2.6 | 0.0 | 0.00 | 0.00 | 0.00 | 41 | 1010.4 |
| 20260830213055 | 99 | 129 | 1.7 | 0.0 | 0.00 | 0.00 | 0.00 | 41 | 1010.6 |
| 20260830211555 | 99 | 143 | 1.7 | 0.0 | 0.00 | 0.00 | 0.00 | 40 | 1010.9 |
| 20260830210051 | 98 | 283 | 1.7 | 0.0 | 0.00 | 0.00 | 0.00 | 43 | 1011.2 |
| 20260830204548 | 97 | 96 | 1.7 | 0.0 | 0.00 | 0.00 | 0.00 | 44 | 1011.3 |
| 20260830203046 | 98 | 283 | 1.7 | 0.0 | 0.00 | 0.00 | 0.00 | 44 | 1011.5 |
| 20260830201546 | 96 | 278 | 2.6 | 0.0 | 0.00 | 0.00 | 0.00 | 46 | 1011.6 |
| 20260830200144 | 97 | 106 | 1.7 | 0.0 | 0.00 | 0.00 | 0.00 | 45 | 1011.9 |
| 20260830194550 | 97 | 117 | 1.7 | 0.0 | 0.00 | 0.00 | 0.00 | 46 | 1012.2 |
| 20260830193043 | 97 | 166 | 1.7 | 0.0 | 0.00 | 0.00 | 0.00 | 46 | 1012.5 |
| 20260830191535 | 95 | 107 | 2.6 | 0.0 | 0.00 | 0.00 | 0.00 | 48 | 1012.7 |
| 20260830190035 | 95 | 106 | 2.6 | 0.0 | 0.00 | 0.00 | 0.00 | 48 | 1013.0 |
| 20260830184534 | 95 | 126 | 2.6 | 0.0 | 0.00 | 0.00 | 0.00 | 50 | 1013.1 |
| 20260830183029 | 94 | 314 | 2.6 | 0.0 | 0.00 | 0.00 | 0.00 | 50 | 1013.3 |
| 20260830181528 | 93 | 81 | 2.6 | 0.0 | 0.00 | 0.00 | 0.00 | 53 | 1013.5 |
| 20260830180026 | 94 | 213 | 1.7 | 0.0 | 0.00 | 0.00 | 0.00 | 52 | 1014.0 |
| 20260830174527 | 93 | 136 | 1.7 | 0.0 | 0.00 | 0.00 | 0.00 | 54 | 1014.3 |
| 20260830173022 | 92 | 180 | 2.6 | 0.0 | 0.00 | 0.00 | 0.00 | 56 | 1014.5 |
| 20260830171521 | 92 | 262 | 2.6 | 0.0 | 0.00 | 0.00 | 0.00 | 57 | 1014.7 |
| 20260830170021 | 91 | 183 | 1.7 | 0.0 | 0.00 | 0.00 | 0.00 | 57 | 1014.7 |
| 20260830164517 | 91 | 232 | 2.6 | 0.0 | 0.00 | 0.00 | 0.00 | 58 | 1014.9 |
| 20260830163019 | 90 | 119 | 1.7 | 0.0 | 0.00 | 0.00 | 0.00 | 61 | 1014.9 |
| 20260830161515 | 89 | 193 | 1.7 | 0.0 | 0.00 | 0.00 | 0.00 | 62 | 1014.9 |
| 20260830160014 | 89 | 104 | 1.7 | 0.0 | 0.00 | 0.00 | 0.00 | 61 | 1014.9 |
| 20260830154511 | 88 | 218 | 0.9 | 0.0 | 0.00 | 0.00 | 0.00 | 66 | 1014.8 |
| 20260830153006 | 86 | 264 | 0.9 | 0.0 | 0.00 | 0.00 | 0.00 | 67 | 1014.7 |
| 20260830151503 | 85 | 197 | 0.9 | 0.0 | 0.00 | 0.00 | 0.00 | 69 | 1014.7 |
| 20260830150002 | 84 | 203 | 1.7 | 0.0 | 0.00 | 0.00 | 0.00 | 72 | 1014.6 |
| 20260830144501 | 83 | 163 | 1.7 | 0.0 | 0.00 | 0.00 | 0.00 | 75 | 1014.6 |
| 20260830143001 | 81 | 197 | 0.9 | 0.0 | 0.00 | 0.00 | 0.00 | 78 | 1014.7 |
| 20260830141604 | 79 | 236 | 0.9 | 0.0 | 0.00 | 0.00 | 0.00 | 80 | 1014.7 |
| 20260830140058 | 78 | 238 | 0.9 | 0.0 | 0.00 | 0.00 | 0.00 | 82 | 1014.5 |
| 20260830134558 | 77 | 180 | 0.9 | 0.0 | 0.00 | 0.00 | 0.00 | 84 | 1014.5 |
| 20260830133105 | 77 | 233 | 0.9 | 0.0 | 0.00 | 0.00 | 0.00 | 85 | 1014.4 |
| 20260830131556 | 76 | 205 | 0.0 | 0.0 | 0.00 | 0.00 | 0.00 | 86 | 1014.3 |
| 20260830130105 | 75 | 195 | 0.0 | 0.0 | 0.00 | 0.00 | 0.00 | 87 | 1014.2 |
| 20260830124553 | 75 | 243 | 0.0 | 0.0 | 0.00 | 0.00 | 0.00 | 87 | 1014.2 |
| 20260830123057 | 75 | 252 | 0.0 | 0.0 | 0.00 | 0.00 | 0.00 | 86 | 1014.0 |
| 20260830121555 | 75 | 170 | 0.0 | 0.0 | 0.00 | 0.00 | 0.00 | 86 | 1013.8 |
| 20260830120048 | 75 | 185 | 0.0 | 0.0 | 0.00 | 0.00 | 0.00 | 85 | 1013.7 |
| 20260830114546 | 75 | 191 | 0.0 | 0.0 | 0.00 | 0.00 | 0.00 | 85 | 1013.6 |
| 20260830113045 | 76 | 201 | 0.0 | 0.0 | 0.00 | 0.00 | 0.00 | 84 | 1013.5 |
| 20260830111543 | 76 | 170 | 0.0 | 0.0 | 0.00 | 0.00 | 0.00 | 83 | 1013.5 |
| 20260830110055 | 76 | 176 | 0.0 | 0.0 | 0.00 | 0.00 | 0.00 | 83 | 1013.4 |
| 20260830104544 | 76 | 162 | 0.0 | 0.0 | 0.00 | 0.00 | 0.00 | 82 | 1013.3 |
| 20260830103040 | 77 | 143 | 0.0 | 0.0 | 0.00 | 0.00 | 0.00 | 81 | 1013.3 |
| 20260830101537 | 77 | 226 | 0.0 | 0.0 | 0.00 | 0.00 | 0.00 | 80 | 1013.2 |
| 20260830100048 | 77 | 189 | 0.0 | 0.0 | 0.00 | 0.00 | 0.00 | 79 | 1013.2 |
| 20260830094537 | 77 | 270 | 0.0 | 0.0 | 0.00 | 0.00 | 0.00 | 78 | 1013.1 |
| 20260830093034 | 78 | 211 | 0.9 | 0.0 | 0.00 | 0.00 | 0.00 | 77 | 1013.2 |
| 20260830091538 | 78 | 198 | 0.0 | 0.0 | 0.00 | 0.00 | 0.00 | 77 | 1013.0 |
| 20260830090031 | 78 | 128 | 0.0 | 0.0 | 0.00 | 0.00 | 0.00 | 76 | 1013.2 |
| 20260830084555 | 79 | 168 | 0.0 | 0.0 | 0.00 | 0.00 | 0.00 | 75 | 1013.2 |
| 20260830083029 | 79 | 45 | 0.0 | 0.0 | 0.00 | 0.00 | 0.00 | 75 | 1013.2 |
| 20260830081526 | 79 | 143 | 0.0 | 0.0 | 0.00 | 0.00 | 0.00 | 75 | 1013.3 |
| 20260830080025 | 80 | 131 | 0.0 | 0.0 | 0.00 | 0.00 | 0.00 | 74 | 1013.4 |
| 20260830074525 | 80 | 220 | 0.9 | 0.0 | 0.00 | 0.00 | 0.00 | 73 | 1013.4 |